{"data":{"norad_id":63565,"epoch":"2026-05-24T20:21:49.290624Z","epoch_age_seconds":84068,"freshness":"FRESH","line1":"1 63565U 25075T   26144.84848716  .00013640  00000+0  50418-3 0  9991","line2":"2 63565  42.9962 200.6081 0001794 277.3588  82.7059 15.27586306 63583","mean_motion":15.27586306,"eccentricity":0.0001794,"inclination_deg":42.9962,"raan_deg":200.6081,"arg_perigee_deg":277.3588,"mean_anomaly_deg":82.7059,"bstar":0.00050418,"rev_number":6358,"period_min":94.266359572878,"perigee_km":481.7993202739,"apogee_km":484.26110707017,"semimajor_km":6861.167213672,"source":"CELESTRAK","updated_at":"2026-05-25T13:38:20.044251Z"}}